Wind_Speed
35 32 31 30 28 27 25 23 22 20 20 20 18 14 12 10 9 9 7 8 8 8 9 9 10 10 10 11 12 13 14 14 15 18 19 21 22 24 25 26 26 27 27 28
39 35 33 33 31 29 27 25 22 21 21 19 16 13 12 12 10 10 9 8 9 9 9 10 11 12 12 13 14 15 17 17 19 20 22 23 24 25 26 26 27 27 29 31
42 39 37 36 32 29 28 26 23 21 20 19 17 14 13 14 13 11 11 10 10 10 11 11 12 14 14 15 17 18 18 20 20 22 23 24 25 25 25 25 27 29 30 32
43 39 40 35 31 30 28 27 25 23 22 20 17 16 15 14 13 12 13 12 11 12 13 13 14 15 16 17 19 20 21 21 22 21 23 24 24 25 26 26 27 29 29 31
42 40 40 37 34 30 28 27 25 25 23 21 18 16 16 16 14 14 14 14 14 14 15 15 16 17 17 19 20 21 23 23 23 24 25 25 26 26 27 27 29 31 32 32
42 41 40 36 33 30 28 28 26 24 21 18 18 18 17 17 16 15 15 15 16 16 18 18 19 19 19 21 22 23 23 23 25 26 27 27 27 27 28 28 28 30 30 31
38 40 39 35 34 32 30 27 26 24 23 21 19 19 19 19 17 16 16 16 17 18 19 20 21 21 22 23 24 24 25 26 27 27 27 28 28 28 28 28 29 29 30 30
34 36 37 35 33 32 30 27 26 24 22 20 20 19 19 19 17 17 17 17 19 20 21 21 22 24 24 25 25 26 27 27 28 28 29 30 30 29 29 29 29 30 31 32
29 30 31 32 31 30 28 26 25 22 22 21 21 21 19 18 17 16 17 19 20 21 22 23 24 25 26 27 28 28 29 29 30 30 30 30 31 31 32 32 32 33 33 35
26 27 27 25 26 27 27 23 22 22 21 20 20 18 18 18 18 18 19 20 21 22 23 24 26 27 28 29 30 30 31 31 31 32 32 32 32 32 33 33 34 35 36 37
22 24 24 22 21 22 22 21 20 20 18 18 18 17 16 17 17 18 19 20 22 23 25 26 27 28 29 30 31 32 33 33 33 33 34 34 34 34 34 34 35 36 37 38
14 15 16 16 17 17 18 18 16 16 16 16 15 15 16 17 17 18 20 21 23 24 25 26 27 29 30 31 31 32 33 33 34 34 35 35 36 36 36 37 38 39 41 42
8 10 10 10 11 11 12 12 13 13 13 14 14 16 17 18 19 20 21 22 23 24 25 26 27 28 29 29 30 31 32 33 34 34 35 35 36 37 38 40 40 41 43 44
4 5 6 6 7 8 9 10 10 11 13 14 15 16 18 19 20 21 22 22 23 24 25 26 27 28 29 30 31 32 33 34 35 35 36 37 38 39 40 41 42 44 45 47
5 6 6 7 8 8 9 10 11 12 13 15 16 17 18 19 20 21 22 23 24 25 26 28 29 30 31 32 33 34 34 35 36 37 38 40 41 42 43 44 45 46 47 48
7 6 7 7 8 9 10 11 12 14 15 16 17 18 19 20 21 22 23 24 25 27 28 30 31 32 33 33 34 34 35 37 38 39 40 41 42 43 45 46 47 47 48 49
7 7 7 8 9 10 11 12 13 14 15 17 18 19 20 21 22 24 25 26 27 29 30 31 32 33 34 35 36 37 38 39 40 40 41 43 44 45 46 47 48 48 48 48
9 9 9 10 11 11 12 13 15 16 17 18 20 21 22 23 24 25 27 28 29 30 31 32 34 35 36 37 38 38 39 40 40 41 43 44 45 46 46 46 46 46 45 45
10 10 11 12 13 14 15 16 17 18 19 20 21 23 24 26 27 28 29 30 32 33 33 35 36 37 37 38 38 39 40 41 42 43 43 44 44 44 44 44 43 43 41 41
11 12 13 14 15 16 17 18 19 20 21 22 23 25 26 27 28 29 31 32 33 35 36 37 37 38 38 39 40 40 41 41 42 42 42 42 42 42 41 40 39 38 38 37
13 14 15 16 17 17 18 20 21 22 23 24 25 27 28 29 30 31 33 34 35 36 37 37 37 38 39 39 39 40 40 40 40 40 40 40 39 38 37 36 36 35 34 33
15 16 17 17 18 19 20 22 23 24 26 27 28 29 30 31 32 33 34 35 36 36 37 37 37 37 37 37 38 38 38 38 38 38 37 37 36 35 34 33 32 31 30 29
16 17 18 19 20 21 22 24 26 27 28 29 30 31 32 33 34 34 35 35 35 36 36 37 37 37 37 37 37 36 36 36 36 35 34 33 32 31 31 29 28 26 25 25
18 19 20 21 23 24 26 27 29 29 30 30 31 32 33 34 34 35 35 34 34 35 35 35 35 35 35 35 34 34 33 32 32 31 30 29 29 28 26 25 24 23 22 22
20 21 22 24 25 27 28 29 30 31 31 32 33 34 34 34 34 33 33 33 33 33 33 33 33 33 32 32 31 31 30 29 28 28 28 28 26 25 24 23 22 22 21 20
22 24 25 26 28 29 30 31 32 32 33 34 34 34 33 33 32 32 32 32 31 31 30 30 30 30 29 29 28 28 27 27 26 26 27 26 24 23 22 21 21 20 19 19
25 26 26 27 28 30 31 31 31 32 32 33 33 33 32 31 30 30 30 29 29 28 27 27 27 27 27 27 27 26 26 26 25 25 24 22 21 21 21 20 19 18 19 18
Wind_Direction
246 247 248 253 256 260 264 270 273 275 274 279 282 289 298 296 290 293 296 290 279 273 271 275 278 275 272 261 253 248 245 245 247 247 246 248 248 249 250 250 252 250 252 256
246 248 249 252 253 257 261 266 270 271 273 277 276 281 295 295 288 291 297 294 284 278 272 274 275 277 278 271 267 266 263 257 256 257 255 254 255 255 255 255 254 256 257 259
246 245 249 249 251 255 259 262 266 271 275 271 272 281 290 292 291 298 300 296 294 289 281 280 280 276 272 272 273 274 271 263 266 264 263 266 264 260 263 263 259 260 262 262
246 244 244 247 250 252 254 256 262 265 268 267 267 276 287 291 290 291 297 295 295 290 286 283 282 280 276 278 275 274 274 274 274 270 273 272 274 271 267 267 266 267 269 267
240 241 244 246 249 250 252 254 256 261 264 264 263 272 282 286 287 286 290 289 291 289 285 284 282 281 279 280 281 281 282 278 278 277 281 281 277 277 275 271 268 267 268 269
236 239 241 244 245 248 251 255 259 262 262 264 268 271 279 278 278 278 281 282 284 285 285 285 284 284 281 281 281 282 284 283 282 283 283 281 279 279 279 276 275 273 273 273
237 239 241 242 244 247 252 259 261 260 261 262 265 270 275 274 268 270 275 278 281 282 283 283 284 285 286 285 282 284 285 286 286 285 285 283 282 282 282 278 276 273 274 276
237 238 239 241 243 246 250 250 254 255 255 260 264 269 271 269 264 267 270 275 278 280 281 283 284 286 286 288 288 288 287 286 286 287 288 287 286 285 284 282 280 277 277 277
240 240 240 241 243 245 247 251 250 249 256 258 263 267 265 262 260 265 271 274 276 279 280 282 284 285 285 286 287 288 288 288 287 287 289 290 289 288 286 284 281 280 279 278
237 240 241 242 242 241 240 244 248 248 254 259 257 259 261 262 263 266 269 273 275 277 279 281 283 284 285 285 286 287 287 287 288 287 288 288 290 289 286 285 284 282 281 282
236 237 243 244 238 238 238 241 248 250 256 256 255 259 262 264 267 269 270 273 276 278 280 282 283 284 285 286 286 286 287 287 288 288 288 288 288 288 287 286 286 285 284 284
233 234 233 228 230 231 233 240 245 252 257 257 258 263 268 270 271 273 273 275 277 280 281 282 284 285 286 287 287 287 286 287 287 288 288 288 288 288 288 287 287 286 286 286
222 219 221 223 223 225 233 238 244 250 255 261 264 268 271 273 274 275 276 278 279 281 283 285 286 287 287 287 287 288 289 289 290 290 290 290 290 289 288 288 288 287 287 287
221 219 222 226 228 232 235 240 249 257 262 266 268 271 272 273 276 278 279 280 282 284 286 288 288 288 289 289 289 290 290 290 290 290 290 290 290 290 289 289 289 289 288 288
231 226 237 249 251 249 251 258 262 265 268 272 272 275 277 279 281 282 283 285 286 289 290 290 290 291 291 292 292 291 292 292 291 291 291 291 291 291 291 290 290 290 289 289
244 243 246 253 256 257 264 270 272 274 276 277 278 281 282 283 285 286 288 290 290 291 291 292 291 292 292 293 293 293 293 293 293 293 292 293 293 293 293 293 292 292 291 290
251 252 255 260 263 267 272 276 279 280 281 281 281 283 285 287 289 291 292 292 292 293 293 293 293 294 294 295 295 294 294 294 294 295 295 294 294 294 294 293 293 292 292 291
253 257 262 267 270 273 275 278 280 281 281 282 285 287 289 291 292 293 292 292 293 293 294 294 295 296 297 296 296 295 295 295 295 295 295 295 295 295 295 294 293 292 292 291
257 263 267 270 272 275 278 280 282 284 285 287 289 290 291 292 293 294 294 294 295 295 296 296 296 297 297 297 297 296 296 296 297 297 297 297 296 296 295 295 294 293 293 293
263 267 270 273 276 280 282 284 285 286 288 290 291 291 293 294 294 295 296 296 297 297 298 298 298 298 298 298 298 298 298 298 299 299 299 299 298 297 296 296 295 294 294 293
268 270 273 275 278 281 283 285 287 288 290 292 292 293 295 296 296 297 298 298 299 299 299 299 299 299 299 299 299 300 300 300 301 301 301 301 300 299 298 297 296 295 295 294
272 274 276 278 281 284 286 288 290 291 292 293 294 295 296 298 298 298 299 299 299 299 299 299 299 299 299 300 301 302 302 302 302 302 302 302 301 300 299 298 297 297 297 297
276 277 279 283 286 288 289 291 292 293 293 294 296 297 299 299 299 299 300 300 300 300 299 299 299 299 300 301 303 304 304 305 305 305 305 305 304 303 302 301 300 301 301 301
279 281 283 286 288 289 290 292 292 292 293 294 296 297 298 298 298 298 299 300 300 300 299 298 299 300 301 303 304 305 306 307 308 308 308 308 307 306 306 304 303 304 305 305
282 284 287 289 290 289 289 291 293 293 293 294 296 297 298 298 298 299 299 299 299 299 298 298 299 301 302 304 305 306 307 308 309 310 311 312 310 307 307 306 306 306 306 307
285 287 288 289 290 290 290 291 292 292 293 295 296 297 298 298 298 298 299 299 298 298 298 299 301 302 303 305 306 307 308 309 310 311 312 313 311 310 309 309 309 308 308 308
287 288 289 289 290 290 291 291 292 293 294 295 296 297 297 297 297 297 298 299 299 299 299 300 301 302 304 306 307 308 309 310 310 312 314 314 313 312 313 312 311 310 310 311
Height
5820 5823 5824 5826 5828 5829 5830 5830 5829 5829 5829 5829 5829 5829 5829 5829 5829 5829 5828 5828 5828 5827 5827 5827 5826 5826 5827 5827 5826 5826 5826 5827 5828 5828 5828 5829 5829 5829 5829 5830 5829 5829 5830 5830
5812 5816 5818 5819 5822 5823 5824 5824 5823 5824 5824 5825 5825 5825 5825 5825 5825 5825 5824 5824 5824 5824 5824 5824 5823 5823 5823 5823 5823 5822 5821 5822 5822 5822 5822 5822 5822 5822 5822 5822 5821 5821 5821 5821
5804 5807 5810 5812 5815 5817 5817 5818 5818 5819 5821 5820 5821 5821 5821 5820 5820 5820 5820 5820 5820 5820 5819 5819 5819 5819 5819 5819 5818 5818 5816 5814 5814 5814 5815 5815 5815 5814 5814 5813 5813 5813 5812 5812
5796 5800 5801 5807 5808 5810 5811 5812 5813 5813 5814 5815 5816 5816 5816 5815 5816 5816 5816 5816 5816 5815 5815 5815 5814 5814 5813 5813 5812 5812 5811 5810 5809 5807 5808 5808 5808 5807 5806 5804 5804 5804 5803 5802
5786 5789 5792 5798 5800 5802 5804 5805 5807 5808 5808 5808 5809 5810 5810 5811 5811 5811 5811 5811 5811 5811 5810 5810 5809 5808 5808 5807 5806 5805 5804 5803 5803 5802 5802 5801 5801 5799 5797 5796 5796 5796 5795 5793
5777 5780 5784 5790 5792 5794 5797 5798 5800 5801 5802 5803 5804 5805 5806 5806 5806 5806 5806 5806 5806 5806 5805 5804 5803 5803 5802 5801 5800 5799 5797 5796 5795 5794 5793 5792 5791 5790 5789 5788 5787 5786 5785 5784
5767 5770 5775 5781 5785 5788 5791 5794 5794 5795 5796 5797 5799 5800 5800 5800 5800 5800 5801 5801 5801 5800 5799 5798 5797 5797 5796 5795 5793 5792 5791 5789 5788 5786 5785 5784 5782 5781 5780 5779 5777 5776 5776 5775
5760 5763 5770 5774 5777 5781 5784 5786 5787 5788 5789 5791 5793 5794 5794 5794 5794 5794 5795 5795 5795 5794 5794 5793 5792 5791 5790 5788 5787 5786 5784 5782 5781 5779 5778 5776 5774 5772 5771 5770 5768 5767 5766 5765
5755 5759 5762 5766 5769 5773 5776 5778 5780 5781 5783 5785 5786 5787 5788 5788 5788 5788 5789 5789 5789 5788 5787 5786 5785 5784 5782 5781 5780 5778 5777 5775 5773 5771 5769 5767 5766 5764 5762 5761 5759 5758 5756 5754
5749 5752 5756 5759 5762 5766 5769 5771 5773 5775 5778 5779 5780 5781 5782 5782 5783 5783 5783 5783 5782 5781 5780 5779 5778 5777 5775 5774 5772 5770 5768 5766 5765 5763 5761 5759 5757 5755 5753 5751 5750 5748 5746 5744
5744 5747 5751 5754 5756 5758 5761 5765 5767 5769 5770 5771 5773 5775 5776 5777 5777 5777 5777 5776 5776 5775 5773 5772 5770 5768 5767 5765 5763 5761 5759 5757 5756 5754 5752 5749 5747 5745 5743 5741 5739 5737 5734 5732
5741 5744 5746 5748 5751 5753 5756 5760 5762 5763 5764 5766 5767 5768 5769 5770 5770 5770 5770 5769 5768 5767 5765 5764 5762 5760 5759 5757 5755 5753 5750 5748 5746 5744 5742 5739 5737 5734 5732 5730 5727 5724 5721 5719
5738 5740 5742 5745 5747 5749 5752 5755 5757 5758 5759 5760 5761 5762 5763 5763 5764 5763 5762 5761 5760 5759 5757 5756 5754 5752 5750 5748 5746 5744 5742 5739 5736 5734 5731 5729 5726 5723 5720 5717 5714 5711 5708 5704
5736 5738 5740 5742 5744 5746 5748 5750 5751 5753 5754 5755 5756 5756 5757 5757 5757 5756 5755 5754 5753 5751 5750 5748 5746 5744 5742 5740 5737 5735 5732 5729 5727 5724 5721 5718 5715 5711 5708 5704 5701 5697 5694 5690
5734 5736 5738 5739 5741 5743 5745 5746 5747 5748 5749 5750 5750 5750 5750 5750 5749 5749 5748 5747 5745 5743 5741 5739 5737 5735 5732 5730 5728 5725 5722 5719 5716 5713 5709 5706 5702 5698 5694 5691 5687 5683 5679 5675
5732 5733 5735 5737 5738 5740 5741 5742 5743 5743 5744 5744 5744 5744 5744 5743 5742 5741 5740 5738 5737 5735 5733 5730 5728 5725 5723 5720 5717 5714 5711 5708 5704 5701 5697 5693 5689 5684 5680 5676 5672 5667 5663 5659
5730 5731 5732 5733 5735 5736 5737 5737 5738 5738 5738 5738 5738 5737 5736 5736 5734 5733 5732 5730 5728 5726 5724 5721 5718 5715 5713 5710 5707 5703 5700 5696 5692 5688 5684 5679 5675 5670 5666 5661 5657 5652 5648 5643
5726 5728 5729 5730 5731 5732 5732 5732 5733 5732 5732 5732 5731 5730 5729 5728 5727 5725 5723 5721 5719 5717 5714 5711 5708 5705 5702 5699 5695 5692 5688 5684 5680 5675 5671 5666 5661 5656 5651 5646 5642 5637 5633 5628
5722 5723 5725 5726 5726 5727 5727 5727 5727 5726 5726 5725 5724 5723 5721 5720 5718 5716 5714 5711 5709 5707 5704 5700 5697 5694 5691 5687 5684 5680 5675 5671 5666 5662 5657 5652 5647 5642 5637 5632 5628 5623 5619 5615
5718 5719 5720 5721 5721 5721 5721 5721 5720 5720 5719 5718 5716 5715 5713 5711 5709 5707 5704 5702 5699 5696 5693 5689 5686 5682 5678 5675 5671 5667 5662 5658 5653 5648 5643 5638 5633 5628 5624 5619 5615 5611 5607 5603
5714 5714 5715 5715 5715 5715 5715 5714 5713 5712 5711 5710 5708 5707 5704 5702 5700 5697 5694 5691 5688 5685 5681 5677 5674 5670 5666 5663 5658 5654 5650 5645 5641 5636 5631 5626 5621 5616 5611 5607 5603 5599 5596 5592
5709 5709 5709 5709 5709 5708 5707 5706 5705 5704 5703 5701 5700 5698 5695 5693 5690 5687 5684 5681 5677 5674 5670 5666 5662 5659 5655 5651 5646 5642 5637 5633 5628 5624 5619 5614 5610 5605 5601 5597 5593 5589 5586 5582
5703 5703 5703 5702 5702 5701 5700 5699 5697 5696 5694 5692 5690 5688 5685 5682 5679 5676 5673 5670 5666 5663 5659 5655 5651 5647 5643 5639 5635 5631 5626 5622 5617 5613 5608 5604 5599 5595 5591 5587 5584 5580 5577 5574
5697 5697 5696 5696 5695 5694 5692 5691 5689 5687 5685 5683 5681 5678 5676 5673 5669 5666 5663 5659 5656 5652 5648 5644 5640 5637 5633 5629 5625 5621 5616 5612 5608 5603 5599 5595 5591 5587 5583 5579 5576 5573 5570 5567
5691 5690 5689 5688 5687 5686 5684 5682 5680 5678 5676 5673 5671 5668 5665 5662 5659 5656 5652 5649 5645 5642 5638 5634 5630 5627 5624 5620 5616 5612 5608 5604 5600 5596 5592 5587 5583 5580 5576 5573 5570 5567 5564 5561
5684 5683 5682 5681 5679 5677 5675 5673 5671 5668 5666 5663 5661 5658 5655 5652 5649 5645 5642 5639 5636 5632 5629 5625 5622 5619 5615 5611 5608 5604 5600 5597 5593 5589 5585 5581 5577 5574 5570 5567 5564 5561 5558 5556
5676 5675 5674 5672 5670 5668 5666 5663 5661 5659 5656 5653 5650 5647 5645 5642 5639 5636 5633 5630 5626 5623 5620 5617 5614 5611 5607 5604 5600 5597 5593 5590 5586 5582 5579 5575 5572 5568 5565 5562 5559 5556 5553 5551